Weather History for Homestead AFB, FL

Change the Weather History Date:

Sunday, November 11, 2012

  Actual Average Record
Temperature  
Mean Temperature 74 °F -  
Max Temperature 79 °F 81 °F 88 °F (1952)
Min Temperature 70 °F 63 °F 45 °F (1962)
Cooling Degree Days 10    
Growing Degree Days 24 (Base 50)    
Moisture  
Dew Point 62 °F    
Average Humidity 65    
Maximum Humidity 75    
Minimum Humidity 57    
Precipitation  
Precipitation 0.00 in - - ()
Sea Level Pressure  
Sea Level Pressure 30.20 in    
Wind  
Wind Speed 11 mph (East)    
Max Wind Speed 18 mph    
Max Gust Speed 24 mph    
Visibility 10 miles    
Events Rain    
Averages and records for this station are not official NWS values.
T = Trace of Precipitation, MM = Missing Value Source: NWS Daily Summary

Daily Weather History Graph

Daily Weather History Graph

Search for Another Location

Airport:

Trip Planner

Search our weather history database for the weather conditions in past years. The results will help you decide how hot, cold, wet, or windy it might be!

Date:

Astronomy

Nov. 11, 2012 Rise Set
Actual Time 6:36 AM EST 5:34 PM EST
Civil Twilight 6:12 AM EST 5:58 PM EST
Nautical Twilight 5:44 AM EST 6:26 PM EST
Astronomical Twilight 5:17 AM EST 6:53 PM EST
Moon 4:01 AM EST (11/11) 3:47 PM EST (11/11)
Length of Visible Light 11h 46m
Length of Day
10h 58m
Waning Crescent, 7% of the Moon is Illuminated
Nov 11
Waning Crescent
Nov 13
New
Nov 20
First Quarter
Nov 28
Full
Dec 6
Last Quarter

Hourly Weather History & Observations

Time (EST) Temp. Dew Point Humidity Pressure Visibility Wind Dir Wind Speed Gust Speed Precip Events Conditions
12:55 AM 72.3 °F 60.6 °F 67% 30.20 in 10.0 mi East 10.4 mph - N/A   Scattered Clouds
1:55 AM 71.6 °F 61.2 °F 70% 30.19 in 10.0 mi East 9.2 mph - N/A   Scattered Clouds
2:55 AM 72.3 °F 58.8 °F 62% 30.17 in 10.0 mi East 10.4 mph - N/A   Overcast
3:55 AM 71.6 °F 57.2 °F 60% 30.17 in 10.0 mi East 10.4 mph - N/A   Clear
4:55 AM 70.3 °F 58.5 °F 66% 30.18 in 10.0 mi East 5.8 mph - N/A   Partly Cloudy
5:55 AM 71.4 °F 60.3 °F 68% 30.19 in 10.0 mi East 8.1 mph - N/A   Partly Cloudy
6:55 AM 71.8 °F 63.3 °F 75% 30.20 in 10.0 mi East 13.8 mph 21.9 mph N/A   Partly Cloudy
7:55 AM 73.0 °F 61.7 °F 67% 30.22 in 10.0 mi East 11.5 mph - N/A   Partly Cloudy
7:58 AM 73.4 °F 62.6 °F 69% 30.22 in 10.0 mi East 13.8 mph 20.7 mph N/A Rain Light Rain
8:08 AM 71.6 °F 62.6 °F 73% 30.22 in 10.0 mi East 10.4 mph - N/A   Partly Cloudy
8:55 AM 75.9 °F 61.5 °F 61% 30.23 in 10.0 mi East 13.8 mph - 0.00 in   Partly Cloudy
9:55 AM 76.5 °F 61.5 °F 60% 30.24 in 10.0 mi East 12.7 mph 24.2 mph N/A   Clear
10:55 AM 77.9 °F 61.7 °F 57% 30.23 in 10.0 mi East 13.8 mph 23.0 mph N/A   Clear
11:55 AM 77.9 °F 63.1 °F 60% 30.22 in 10.0 mi ENE 18.4 mph - N/A   Clear
12:55 PM 79.2 °F 62.6 °F 57% 30.20 in 10.0 mi East 15.0 mph 24.2 mph N/A   Clear
1:55 PM 78.6 °F 62.6 °F 58% 30.19 in 10.0 mi East 18.4 mph - N/A   Clear
2:55 PM 77.7 °F 61.2 °F 57% 30.18 in 10.0 mi East 13.8 mph - N/A   Partly Cloudy
3:55 PM 77.9 °F 62.1 °F 58% 30.18 in 10.0 mi East 12.7 mph - N/A   Clear
4:55 PM 76.1 °F 62.2 °F 62% 30.18 in 10.0 mi ENE 12.7 mph - N/A   Clear
5:55 PM 73.6 °F 62.6 °F 68% 30.18 in 10.0 mi ENE 10.4 mph - N/A   Clear
6:55 PM 73.2 °F 62.2 °F 68% 30.19 in 10.0 mi ENE 10.4 mph - N/A   Clear
7:55 PM 73.8 °F 62.4 °F 68% 30.20 in 10.0 mi East 12.7 mph - N/A   Clear
8:55 PM 73.6 °F 63.0 °F 69% 30.20 in 10.0 mi East 11.5 mph - N/A   Clear
9:55 PM 73.9 °F 65.3 °F 74% 30.21 in 10.0 mi East 11.5 mph - N/A   Partly Cloudy
10:55 PM 73.6 °F 64.9 °F 74% 30.21 in 10.0 mi East 11.5 mph - N/A   Clear
11:55 PM 73.4 °F 64.8 °F 74% 30.20 in 10.0 mi East 11.5 mph - N/A   Clear